Jitianxing A-01 xing

operational
NORAD ID: 61227 Int'l Des: NNA 2024-173 Owner: JTXZ Country: CN
LEOCIRCULARRETROGRADESSO

Über Jitianxing A-01 xing

Beschreibung wird geladen...

Live-Position

3D-Globus wird geladen...

Nächste Überflüge

Höhenverlauf

Altitude vs Time

uPlot chart will show altitude changes over time

Zweizeiliger Elementsatz

1 61227U 24173A 26063.21064825 .00087645 00000-0 13555-2 0 9991
2 61227 97.3481 147.2281 0003476 258.8280 101.2582 15.53771040 80684
Epoch: 4. März 2026 • Age: 19 hours

Aktueller Status

Höhe 429.7 km
Geschwindigkeit 7.65 km/s
Subsatellitenpunkt -70.25°S, 86.32°E
Startdatum 24. Sept. 2024
Alter 1.4 years
Typ other

Technische Details

Klassifizierung Payload
Masse 50.00 kg
Trockenmasse 50.00 kg
Gesamtmasse 50.00 kg
Länge 2.00 m
Durchmesser 1.50 m
Spannweite 5.00 m
Form Box + pan
Hersteller SDK/GWCG
Bus-Typ GPS50
Phasenstatus In Orbit
Besitzer/Staat JTXZ/CN

Große Konstellationen

Loading constellations...